Regional Weather Roundup
Issued by NWS

Home | Current Version | Previous Version | Graphics & Text | Print | Product List | Glossary On
Versions: 1 2 3 4 5 6 7 8 9 10 11 12 13 14 15 16 17 18 19 20 21 22 23 24 25 26 27 28 29 30 31 32 33 34 35 36 37 38 39 40 41 42 43 44 45 46 47 48 49 50
000
ASUS45 KABQ 241701
RWRNM
WEATHER ROUNDUP FOR NEW MEXICO
NATIONAL WEATHER SERVICE ALBUQUERQUE NM
1100 AM MDT THU JUL 24 2014

NOTE: "FAIR" MEANS FEW OR NO CLOUDS BELOW 12,000 FEET AGL WITH NO
       SIGNIFICANT WEATHER OR OBSTRUCTIONS TO VISION.

      THIS PRODUCT IS RELEASED AS TWO VERSIONS.  ONE VERSION NEAR
      THE TOP OF THE HOUR CONTAINING PRELIMINARY DATA FROM ALBUQUERQUE
      AND OTHER STATIONS.  A FINAL VERSION WITH ADDITIONAL DATA IS
      ISSUED ABOUT 10 MINUTES AFTER THE HOUR.

NMZ501-503-504-510>518-241800-
NORTHWEST PLATEAU/NORTHCENTRAL MOUNTAINS

CITY           SKY/WX    TMP DP  RH WIND       PRES   REMARKS
FARMINGTON     MOSUNNY   85  49  28 VRB3      30.27F
LOS ALAMOS     SUNNY     76  50  40 S6        30.44F
SANTA FE       SUNNY     79  50  36 W10       30.38S
TAOS           SUNNY     75  46  35 SW8       30.44F
ANGEL FIRE     FAIR      71  49  45 SW10G24   30.52S

$$
NMZ402-403-502-505>509-241800-
WESTCENTRAL MOUNTAINS/SOUTHWEST MOUNTAINS

CITY           SKY/WX    TMP DP  RH WIND       PRES   REMARKS
GALLUP         SUNNY     82  44  26 S12       30.36F
GRANTS         SUNNY     82  43  25 S6        30.39F

$$
NMZ407-409-411-412-241800-
SOUTHERN DESERTS

CITY           SKY/WX    TMP DP  RH WIND       PRES   REMARKS
LORDSBURG      FAIR      88  46  23 SE15G25   30.20F
DEMING         SUNNY     87  50  27 E13       30.22F
LAS CRUCES     SUNNY     88  50  26 SE9       30.26S
HOLLOMAN AFB   MOSUNNY   90  53  27 W7G18     30.21F
T OR C         SUNNY     86  49  27 SE7       30.28S

$$
NMZ519>523-241800-
CENTRAL VALLEYS/CENTRAL HIGHLANDS

CITY           SKY/WX    TMP DP  RH WIND       PRES   REMARKS
ALBUQUERQUE    MOSUNNY   83  48  29 S8        30.32F
DOUBLE EAGLE   MOSUNNY   81  52  36 VRB6      30.36F
CLINES CORNERS SUNNY     78  44  29 SW10G18   30.43S
BELEN          FAIR      83  50  31 SE3       30.30F
SOCORRO        FAIR      88  45  22 S10       30.28S

$$
NMZ524>526-539-540-241800-
SOUTHCENTRAL MOUNTAINS

CITY           SKY/WX    TMP DP  RH WIND       PRES   REMARKS
RUIDOSO        NOT AVBL

$$
NMZ527>531-241800-
NORTHEAST HIGHLANDS/NORTHEAST PLAINS

CITY           SKY/WX    TMP DP  RH WIND       PRES   REMARKS
LAS VEGAS      SUNNY     80  45  28 SW17G25   30.39F
RATON          NOT AVBL
CLAYTON        SUNNY     89  49  25 SW17G26   30.23F

$$
NMZ532>537-241800-
EASTCENTRAL PLAINS

CITY           SKY/WX    TMP DP  RH WIND       PRES   REMARKS
TUCUMCARI      SUNNY     92  54  27 SW15      30.19F
CANNON AFB     SUNNY     86  59  38 SW14      30.24F
CLOVIS AIRPORT NOT AVBL

$$
NMZ028-029-538-241800-
SOUTHEAST PLAINS

CITY           SKY/WX    TMP DP  RH WIND       PRES   REMARKS
ROSWELL        SUNNY     90  55  30 CALM      30.19F
ARTESIA        SUNNY     86  55  35 CALM      30.19F
CARLSBAD       SUNNY     90  56  31 CALM      30.17F
HOBBS          SUNNY     88  52  29 VRB5      30.22S


$$



USA.gov is the U.S. government's official web portal to all federal, state and local government web resources and services.